Find SITRO-AIS-27

NORAD ID: 59068 Int'l Des: 2024-039 Owner: SITRO Country: RU Constellation: sitronics operational
LEORETROGRADE

Live Position

Loading 3D Globe...

About SITRO-AIS-27

Description loading...

Upcoming Passes

Passes for default location (London). Set your location on the main map for personalized predictions.

Altitude History

Loading altitude history...

Two-Line Element Set

1 59068U 24039T 26106.84134747 .00003721 00000-0 29188-3 0 9993
2 59068 95.3928 193.1025 0145531 180.9940 179.1019 14.93209676115582
Epoch: Apr 16, 2026 • Age: 6 hours

Current Status

Altitude 490.5 km
Velocity 7.67 km/s
Sub-Earth Point -4.22°S, 140.07°E
Launch Date Feb 29, 2024
Age 2.1 years
Type other

Technical Details

Classification Payload
Mass 3.00 kg
Dry Mass 3.00 kg
Total Mass 3.00 kg
Length 0.30 m
Diameter 0.10 m
Span 0.30 m
Shape Box
Manufacturer SPUT
Bus Type Cubesat 3U
Phase Status In Orbit
Owner/State SITRO/RU

Most Searched